Weather History for Boscombe Down, United Kingdom

Change the Weather History Date:

Monday, October 14, 2013

  Actual Average Record
Temperature  
Mean Temperature 47 °F -  
Max Temperature 52 °F 52 °F 64 °F (1998)
Min Temperature 42 °F 42 °F 28 °F (2012)
Degree Days  
Heating Degree Days 18    
Moisture  
Dew Point 45 °F    
Average Humidity 91    
Maximum Humidity 100    
Minimum Humidity 72    
Precipitation  
Precipitation 0.04 in - - ()
Sea Level Pressure  
Sea Level Pressure 29.78 in    
Wind  
Wind Speed 9 mph ()    
Max Wind Speed 17 mph    
Max Gust Speed -    
Visibility 6.7 miles    
Events Rain    
Averages and records for this station are not official NWS values.
T = Trace of Precipitation, MM = Missing Value Source: Averaged Metar Reports

Daily Weather History Graph

Daily Weather History Graph

Search for Another Location

Airport:

Trip Planner

Search our weather history database for the weather conditions in past years. The results will help you decide how hot, cold, wet, or windy it might be!

Date:

Astronomy

Oct. 14, 2013 Rise Set
Actual Time 7:28 AM BST 6:16 PM BST
Civil Twilight 6:55 AM BST 6:49 PM BST
Nautical Twilight 6:17 AM BST 7:27 PM BST
Astronomical Twilight 5:38 AM BST 8:06 PM BST
Moon 4:03 PM BST (10/14) 1:58 AM BST (10/14)
Length of Visible Light 11h 53m
Length of Day
10h 47m
Waxing Gibbous, 77% of the Moon is Illuminated
Oct 14
Waxing Gibbous
Oct 19
Full
Oct 27
Last Quarter
Nov 3
New
Nov 10
First Quarter

Hourly Weather History & Observations

Time (BST) Temp. Windchill Dew Point Humidity Pressure Visibility Wind Dir Wind Speed Gust Speed Precip Events Conditions
12:50 AM 47 °F - 46 °F 96% 29.85 in 4 mi WNW 6.9 mph - -   Mist
12:50 AM 46.4 °F 42.9 °F 46.4 °F 100% 29.83 in 4.3 mi WNW 6.9 mph - N/A   Mostly Cloudy
1:50 AM 44.6 °F 40.2 °F 44.6 °F 100% 29.83 in - West 8.1 mph - N/A   Partly Cloudy
2:50 AM 44.6 °F 40.7 °F 42.8 °F 93% 29.80 in 3.7 mi West 6.9 mph - N/A   Mist
3:50 AM 44 °F - 43 °F 97% 29.82 in 6 mi West 8.1 mph - -   Mist
3:50 AM 44.6 °F 40.2 °F 42.8 °F 93% 29.80 in 5.6 mi West 8.1 mph - N/A   Scattered Clouds
4:50 AM 42.8 °F 38.0 °F 42.8 °F 100% 29.77 in 6.2 mi WNW 8.1 mph - N/A   Partly Cloudy
5:50 AM 44.6 °F 39.7 °F 42.8 °F 93% 29.77 in 6.2 mi West 9.2 mph - N/A   Partly Cloudy
6:50 AM 45 °F - 44 °F 93% 29.79 in 9 mi WNW 8.1 mph - -   Mostly Cloudy
6:50 AM 44.6 °F 40.2 °F 44.6 °F 100% 29.77 in 6.2 mi WNW 8.1 mph - N/A   Mostly Cloudy
7:50 AM 46.4 °F 42.9 °F 44.6 °F 93% 29.77 in 6.2 mi West 6.9 mph - N/A   Mostly Cloudy
8:50 AM 46.4 °F 41.5 °F 44.6 °F 93% 29.77 in 6.2 mi West 10.4 mph - N/A   Mostly Cloudy
9:50 AM 48 °F - 45 °F 85% 29.80 in 14 mi WNW 10.4 mph - -   Mostly Cloudy
9:50 AM 48.2 °F - 44.6 °F 87% 29.77 in 6.2 mi WNW 10.4 mph - N/A   Mostly Cloudy
10:40 AM 48.2 °F - 46.4 °F 93% 29.77 in 6.2 mi West 10.4 mph - N/A   Mostly Cloudy
10:50 AM 48.2 °F - 46.4 °F 93% 29.77 in 6.2 mi West 11.5 mph - N/A   Mostly Cloudy
11:50 AM 50.0 °F - 46.4 °F 87% 29.77 in 6.2 mi West 10.4 mph - N/A   Mostly Cloudy
12:50 PM 50 °F - 45 °F 78% 29.79 in 19 mi West 11.5 mph - -   Mostly Cloudy
12:50 PM 50.0 °F - 44.6 °F 82% 29.77 in 6.2 mi West 11.5 mph - N/A   Mostly Cloudy
1:35 PM 50.0 °F - 44.6 °F 82% 29.77 in 6.2 mi West 11.5 mph - N/A   Mostly Cloudy
1:50 PM 51.8 °F - 46.4 °F 82% 29.77 in 6.2 mi West 11.5 mph - N/A   Mostly Cloudy
2:50 PM 50.0 °F - 46.4 °F 87% 29.74 in 6.2 mi West 10.4 mph - N/A Rain Light Rain Showers
3:34 PM 51.8 °F - 46.4 °F 82% 29.74 in 6.2 mi West 16.1 mph - N/A   Mostly Cloudy
3:50 PM 51 °F - 45 °F 72% 29.76 in 6 mi WNW 17.3 mph - - Rain Light Rain Showers
3:50 PM 50.0 °F - 44.6 °F 82% 29.74 in 5.6 mi WNW 17.3 mph - N/A   Mostly Cloudy
4:50 PM 48.2 °F - 46.4 °F 93% 29.74 in 6.2 mi West 9.2 mph - N/A   Mostly Cloudy
5:50 PM 48.2 °F - 46.4 °F 93% 29.74 in 6.2 mi WSW 9.2 mph - N/A   Mostly Cloudy
6:50 PM 49 °F - 47 °F 90% 29.76 in 25 mi West 10.4 mph - - Rain Light Rain Showers
6:50 PM 48.2 °F - 46.4 °F 93% 29.74 in 6.2 mi West 10.4 mph - N/A Rain Light Rain Showers
7:50 PM 48.2 °F - 46.4 °F 93% 29.77 in 6.2 mi West 15.0 mph - N/A Rain Light Rain Showers
8:50 PM 48.2 °F - 44.6 °F 87% 29.77 in 6.2 mi WNW 10.4 mph - N/A   Mostly Cloudy
9:50 PM 46 °F - 44 °F 92% 29.80 in 25 mi NW 11.5 mph - -   Scattered Clouds
9:50 PM 46.4 °F 41.1 °F 44.6 °F 93% 29.77 in 6.2 mi NW 11.5 mph - N/A   Partly Cloudy
10:50 PM 44.6 °F 41.4 °F 44.6 °F 100% 29.77 in 6.2 mi WNW 5.8 mph - N/A   Partly Cloudy
11:50 PM 44.6 °F 40.2 °F 44.6 °F 100% 29.80 in 6.2 mi WNW 8.1 mph - N/A   Partly Cloudy